Regional Weather Roundup
Issued by NWS Spokane, WA

Home | Current Version | Previous Version | Text Only | Print | Product List | Glossary On
Versions: 1 2 3 4 5 6 7 8 9 10 11 12 13 14 15 16 17 18 19 20 21 22 23 24 25 26 27 28 29 30 31 32 33 34 35 36 37 38 39 40 41 42 43 44 45 46 47 48 49 50
519
NZUS01 KOTX 272310
RWROTX
EASTERN WASHINGTON/NORTHERN IDAHO ROUNDUP
NATIONAL WEATHER SERVICE, SPOKANE WA
400 PM PDT WED JUL 27 2016

Note: "fair" indicated few or no clouds below 12,000 feet with no
significant weather and/or obstructions to visibility.

...NORTHEAST WASHINGTON AND NORTHERN IDAHO PANHANDLE...

CITY           SKY/WX    TMP DP  RH WIND       PRES   REMARKS
SPOKANE INTL   MOSUNNY   90  47  22 CALM      30.04F
SPOKANE DOWNTO MOSUNNY   92  48  22 SW7       30.02F
COEUR D ALENE  MOSUNNY   91  52  25 SW10      30.00S
DEER PARK      SUNNY     90  46  21 W9        30.03F
SANDPOINT      SUNNY     86  50  28 E7        30.02F
BONNERS FERRY    N/A     90  50  25 W7        30.02F

...SOUTHEAST WASHINGTON AND SOUTHERN IDAHO PANHANDLE...

CITY           SKY/WX    TMP DP  RH WIND       PRES   REMARKS
WALLA WALLA    PTSUNNY   94  54  25 NW10G18   29.97F HX  92
PULLMAN/MOSCOW PTSUNNY   88  49  25 VRB6      30.06F
LEWISTON       MOSUNNY   97  50  20 N7        29.95F HX  94
LOWELL           N/A    100  54  21 CALM      29.93F HX  98

...COLUMBIA BASIN...

CITY           SKY/WX    TMP DP  RH WIND       PRES   REMARKS
EPHRATA        SUNNY     95  52  23 SW13      29.97F HX  92
MOSES LAKE     SUNNY     95  51  22 SW10      29.98F HX  92
TRI CITIES     MOSUNNY   96  54  24 N8        29.94F HX  94
HERMISTON      SUNNY     97  57  26 MISG      29.93F HX  96
PENDLETON      MOSUNNY   96  49  20 N13       29.97F HX  93

...EAST SLOPES CASCADES...

CITY           SKY/WX    TMP DP  RH WIND       PRES   REMARKS
THE DALLES     SUNNY     95  54  25 NW16      29.92F HX  93
YAKIMA         SUNNY     96  49  20 E5        29.98F HX  93
ELLENSBURG     SUNNY     95  49  20 NW6       30.01F HX  92
STAMPEDE PASS  SUNNY     73  53  49 VRB6      30.21S
WENATCHEE      SUNNY     93  51  23 VRB3      29.97F HX  90
OMAK           SUNNY     94  42  16 S8        29.98F HX  90

...SOUTHERN BRITISH COLUMBIA...

CITY           SKY/WX    TMP DP  RH WIND       PRES   REMARKS
CASTLEGAR      PTSUNNY   79  61  53 N6        30.03S
CRANBROOK      PTSUNNY   75  52  43 NW12G20   30.10F

...WESTERN MONTANA...

CITY           SKY/WX    TMP DP  RH WIND       PRES   REMARKS
MISSOULA       MOSUNNY   91  42  18 N15G23    30.05F

...NEIGHBORING CITIES...

CITY           SKY/WX    TMP DP  RH WIND       PRES   REMARKS
SEATTLE        MOSUNNY   83  59  44 N13G21    30.11F
CALGARY        MOSUNNY   77  52  41 E9        30.18S



USA.gov is the U.S. government's official web portal to all federal, state and local government web resources and services.